Terminal Aerodrome Forecast
Issued by NWS

Home | Current Version | Previous Version | Text Only | Print | Product List | Glossary On
Versions: 1 2 3 4 5 6 7 8 9 10 11 12 13 14 15 16 17 18 19 20 21 22
000
FTUS46 KEKA 231700 RRA
TAFCEC
TAF
KCEC 231745Z 2318/2418 17006KT 6SM -RA FEW005 OVC012
      TEMPO 2318/2320 18005KT 3SM -RA BKN005 OVC012
     FM232100 25004KT P6SM -SHRA SCT010 BKN035
     FM240100 33004KT P6SM SCT040
     FM241000 36004KT 4SM BR BKN015
     FM241700 34008KT P6SM FEW025=

USA.gov is the U.S. government's official web portal to all federal, state and local government web resources and services.